User: anonymous   Login
Location: Unspecified
(0.0000°N, 0.0000°E)
Time: 13:45:07
(UTC+00:00)
Language:

ADEOS - Orbit

View from above orbital plane
View from above orbital plane
View from above satellite
View from above satellite

Ground track
Ground track

The orbit data is extracted from the following two-line orbital elements,

1 24277U 96046A   17114.88575491 +.00000027 +00000-0 +28070-4 0  9998
2 24277 098.7170 064.7760 0002181 105.2402 254.9021 14.29379331078383
Epoch (UTC): 24 April 2017 21:15:29
Eccentricity: 0.0002181
inclination: 98.7170°
perigee height: 792 km
apogee height: 795 km
right ascension of ascending node: 64.7760°
argument of perigee: 105.2402°
revolutions per day: 14.29379331
mean anomaly at epoch: 254.9021°
orbit number at epoch: 7838

The dashed part of the orbit path shows where the satellite is in the earth's shadow,  

DLR